• In Belarus
  • List of Countries
  • For 7 days
  • Water Temperature
  • Weather Map
  • Weather Widgets
  • user-avatar
    Login

    Hourly Weather Kalgoorlie

    Today, 6 June, Saturday

    Time Temperature Precipitation Wind Pressure Humidity
    00:00 +16°C° 0 mm 3 mps 736 mmHg 42%
    01:00 +14°C° 0 mm 3 mps 736 mmHg 42%
    02:00 +14°C° 0 mm 3 mps 735 mmHg 44%
    03:00 +14°C° 0 mm 3 mps 736 mmHg 45%
    04:00 +13°C° 0 mm 3 mps 736 mmHg 46%
    05:00 +13°C° 0 mm 3 mps 736 mmHg 47%
    06:00 +13°C° 0 mm 3 mps 736 mmHg 46%
    07:00 +14°C° 0 mm 3 mps 736 mmHg 45%
    08:00 +14°C° 0 mm 3 mps 737 mmHg 44%
    09:00 +17°C° 0 mm 3 mps 737 mmHg 39%
    10:00 +19°C° 0 mm 4 mps 737 mmHg 35%
    11:00 +20°C° 0 mm 4 mps 737 mmHg 30%
    12:00 +21°C° 0 mm 4 mps 737 mmHg 29%
    13:00 +22°C° 0 mm 4 mps 736 mmHg 28%
    14:00 +22°C° 0 mm 4 mps 735 mmHg 27%
    15:00 +21°C° 0 mm 4 mps 735 mmHg 29%
    16:00 +20°C° 0 mm 4 mps 736 mmHg 32%
    17:00 +19°C° 0 mm 3 mps 736 mmHg 35%
    18:00 +19°C° 0 mm 4 mps 736 mmHg 36%
    19:00 +18°C° 0 mm 4 mps 736 mmHg 38%
    20:00 +16°C° 0 mm 5 mps 736 mmHg 39%
    21:00 +15°C° 0 mm 5 mps 736 mmHg 41%
    22:00 +15°C° 0 mm 4 mps 736 mmHg 43%
    23:00 +14°C° 0 mm 4 mps 736 mmHg 44%

    Tomorrow, 7 June, Sunday

    Time Temperature Precipitation Wind Pressure Humidity
    00:00 +14°C° 0 mm 4 mps 736 mmHg 46%
    01:00 +13°C° 0 mm 4 mps 735 mmHg 48%
    02:00 +13°C° 0 mm 4 mps 735 mmHg 50%
    03:00 +12°C° 0 mm 4 mps 735 mmHg 52%
    04:00 +12°C° 0 mm 4 mps 735 mmHg 54%
    05:00 +12°C° 0 mm 4 mps 735 mmHg 55%
    06:00 +12°C° 0 mm 4 mps 735 mmHg 56%
    07:00 +12°C° 0 mm 5 mps 735 mmHg 57%
    08:00 +12°C° 0 mm 5 mps 735 mmHg 58%
    09:00 +14°C° 0 mm 5 mps 735 mmHg 52%
    10:00 +16°C° 0 mm 5 mps 735 mmHg 47%
    11:00 +17°C° 0 mm 6 mps 735 mmHg 41%
    12:00 +19°C° 0 mm 5 mps 735 mmHg 39%
    13:00 +19°C° 0 mm 5 mps 734 mmHg 37%
    14:00 +20°C° 0 mm 4 mps 733 mmHg 35%
    15:00 +19°C° 0 mm 4 mps 733 mmHg 37%
    16:00 +18°C° 0 mm 3 mps 734 mmHg 39%
    17:00 +17°C° 0 mm 3 mps 734 mmHg 41%
    18:00 +16°C° 0 mm 3 mps 734 mmHg 43%
    19:00 +15°C° 0 mm 4 mps 734 mmHg 46%
    20:00 +14°C° 0 mm 4 mps 735 mmHg 49%
    21:00 +13°C° 0 mm 4 mps 735 mmHg 50%
    22:00 +13°C° 0 mm 4 mps 735 mmHg 51%
    23:00 +12°C° 0 mm 4 mps 735 mmHg 52%

    Day after tomorrow, 8 June, Monday

    Time Temperature Precipitation Wind Pressure Humidity
    00:00 +12°C° 0 mm 4 mps 735 mmHg 53%
    01:00 +11°C° 0 mm 4 mps 734 mmHg 55%
    02:00 +11°C° 0 mm 3 mps 734 mmHg 56%
    03:00 +10°C° 0 mm 3 mps 734 mmHg 58%
    04:00 +10°C° 0 mm 3 mps 735 mmHg 60%
    05:00 +9°C° 0 mm 3 mps 735 mmHg 63%
    06:00 +10°C° 0 mm 2 mps 735 mmHg 61%
    07:00 +10°C° 0 mm 2 mps 735 mmHg 59%
    08:00 +12°C° 0 mm 2 mps 735 mmHg 58%
    09:00 +14°C° 0 mm 2 mps 735 mmHg 52%
    10:00 +16°C° 0 mm 2 mps 735 mmHg 46%
    11:00 +18°C° 0 mm 3 mps 735 mmHg 40%
    12:00 +18°C° 0 mm 2 mps 735 mmHg 38%
    13:00 +20°C° 0 mm 1 mps 734 mmHg 35%
    14:00 +20°C° 0 mm 1 mps 733 mmHg 33%
    15:00 +19°C° 0 mm 1 mps 733 mmHg 36%
    16:00 +18°C° 0 mm 1 mps 733 mmHg 39%
    17:00 +16°C° 0 mm 1 mps 734 mmHg 42%
    18:00 +15°C° 0 mm 1 mps 734 mmHg 42%
    19:00 +15°C° 0 mm 2 mps 734 mmHg 43%
    20:00 +15°C° 0 mm 2 mps 734 mmHg 44%
    21:00 +13°C° 0 mm 3 mps 735 mmHg 45%
    22:00 +13°C° 0 mm 3 mps 735 mmHg 46%
    23:00 +13°C° 0 mm 3 mps 735 mmHg 48%

    9 June, Tuesday

    Time Temperature Precipitation Wind Pressure Humidity
    00:00 +12°C° 0 mm 3 mps 735 mmHg 50%
    01:00 +11°C° 0 mm 3 mps 735 mmHg 52%
    02:00 +11°C° 0 mm 3 mps 735 mmHg 54%
    03:00 +10°C° 0 mm 3 mps 735 mmHg 56%
    04:00 +10°C° 0 mm 2 mps 735 mmHg 58%
    05:00 +10°C° 0 mm 2 mps 735 mmHg 60%
    06:00 +10°C° 0 mm 2 mps 735 mmHg 57%
    07:00 +12°C° 0 mm 2 mps 735 mmHg 55%
    08:00 +12°C° 0 mm 2 mps 735 mmHg 52%
    09:00 +14°C° 0 mm 3 mps 735 mmHg 46%
    10:00 +17°C° 0 mm 3 mps 735 mmHg 40%
    11:00 +19°C° 0 mm 3 mps 735 mmHg 34%
    12:00 +19°C° 0 mm 3 mps 735 mmHg 31%
    13:00 +20°C° 0 mm 2 mps 734 mmHg 28%
    14:00 +21°C° 0 mm 2 mps 734 mmHg 26%
    15:00 +20°C° 0 mm 1 mps 733 mmHg 30%
    16:00 +18°C° 0 mm 1 mps 733 mmHg 34%
    17:00 +15°C° 0 mm 0 mps 733 mmHg 37%
    18:00 +16°C° 0 mm 1 mps 734 mmHg 37%
    19:00 +15°C° 0 mm 2 mps 734 mmHg 36%
    20:00 +15°C° 0 mm 2 mps 734 mmHg 35%
    21:00 +14°C° 0 mm 3 mps 734 mmHg 35%
    22:00 +14°C° 0 mm 3 mps 734 mmHg 36%
    23:00 +13°C° 0 mm 3 mps 734 mmHg 36%

    10 June, Wednesday

    Time Temperature Precipitation Wind Pressure Humidity
    00:00 +13°C° 0 mm 3 mps 734 mmHg 38%
    01:00 +13°C° 0 mm 4 mps 734 mmHg 39%
    02:00 +12°C° 0 mm 4 mps 734 mmHg 41%
    03:00 +12°C° 0 mm 4 mps 734 mmHg 41%
    04:00 +11°C° 0 mm 4 mps 733 mmHg 41%
    05:00 +11°C° 0 mm 4 mps 733 mmHg 42%
    06:00 +11°C° 0 mm 4 mps 734 mmHg 41%
    07:00 +12°C° 0 mm 4 mps 734 mmHg 40%
    08:00 +12°C° 0 mm 4 mps 734 mmHg 39%
    09:00 +15°C° 0 mm 4 mps 734 mmHg 34%
    10:00 +17°C° 0 mm 5 mps 734 mmHg 29%
    11:00 +21°C° 0 mm 6 mps 734 mmHg 23%
    12:00 +22°C° 0 mm 6 mps 733 mmHg 22%
    13:00 +23°C° 0 mm 6 mps 732 mmHg 21%
    14:00 +25°C° 0 mm 5 mps 732 mmHg 20%
    15:00 +22°C° 0 mm 5 mps 731 mmHg 22%
    16:00 +21°C° 0 mm 4 mps 731 mmHg 25%
    17:00 +19°C° 0 mm 3 mps 731 mmHg 27%
    18:00 +19°C° 0 mm 3 mps 731 mmHg 28%
    19:00 +18°C° 0 mm 4 mps 731 mmHg 29%
    20:00 +18°C° 0 mm 4 mps 731 mmHg 30%
    21:00 +17°C° 0 mm 4 mps 731 mmHg 31%
    22:00 +17°C° 0 mm 4 mps 731 mmHg 32%
    23:00 +15°C° 0 mm 5 mps 731 mmHg 34%

    11 June, Thursday

    Time Temperature Precipitation Wind Pressure Humidity
    00:00 +15°C° 0 mm 5 mps 730 mmHg 34%
    01:00 +15°C° 0 mm 5 mps 730 mmHg 34%
    02:00 +16°C° 0 mm 6 mps 730 mmHg 34%
    03:00 +16°C° 0 mm 6 mps 730 mmHg 34%
    04:00 +16°C° 0 mm 6 mps 729 mmHg 34%
    05:00 +17°C° 0 mm 7 mps 729 mmHg 34%
    06:00 +17°C° 0 mm 7 mps 729 mmHg 34%
    07:00 +17°C° 0 mm 7 mps 730 mmHg 34%
    08:00 +17°C° 0 mm 7 mps 730 mmHg 34%
    09:00 +20°C° 0 mm 7 mps 729 mmHg 33%
    10:00 +21°C° 0 mm 8 mps 729 mmHg 32%
    11:00 +22°C° 0 mm 9 mps 729 mmHg 30%
    12:00 +23°C° 0 mm 8 mps 728 mmHg 31%
    13:00 +23°C° 0 mm 8 mps 728 mmHg 31%
    14:00 +24°C° 0 mm 7 mps 727 mmHg 32%
    15:00 +22°C° 0.3 mm 7 mps 727 mmHg 44%
    16:00 +20°C° 0.3 mm 8 mps 727 mmHg 57%
    17:00 +17°C° 0.3 mm 8 mps 727 mmHg 69%
    18:00 +17°C° 0.2 mm 7 mps 727 mmHg 71%
    19:00 +16°C° 0.2 mm 5 mps 727 mmHg 74%
    20:00 +17°C° 0.2 mm 4 mps 727 mmHg 76%
    21:00 +15°C° 0 mm 4 mps 727 mmHg 74%
    22:00 +15°C° 0 mm 4 mps 727 mmHg 73%
    23:00 +15°C° 0 mm 4 mps 726 mmHg 71%
    Show more